Regional Weather Roundup
Issued by NWS

Home | Current Version | Previous Version | Text Only | Print | Product List | Glossary Off
Versions: 1 2 3 4 5 6 7 8 9 10 11 12 13 14 15 16 17 18 19 20 21 22 23 24 25 26 27 28 29 30 31 32 33 34 35 36 37 38 39 40 41 42 43 44 45 46 47 48 49 50

207
ASUS43 KOAX 201402
RWRNE

WEATHER ROUNDUP FOR NEBRASKA
NATIONAL WEATHER SERVICE OMAHA NE
900 AM CDT WED SEP 20 2017

NOTES: SATELLITE DATA IS BEING USED TO AUGMENT CLOUD COVER ABOVE
       12000 FEET.
       "FAIR" INDICATES FEW OR NO CLOUDS BELOW 12,000 FEET WITH NO
       SIGNIFICANT WEATHER AND/OR OBSTRUCTIONS TO VISIBILITY.


NEZ001>004-019>022-054>056-201500-
NEBRASKA PANHANDLE

CITY           SKY/WX    TMP DP  RH WIND       PRES   REMARKS
SCOTTSBLUFF    SUNNY     52  32  46 NW13      29.92S
ALLIANCE       CLOUDY    50  31  48 W14       29.91R
CHADRON        SUNNY     53  28  38 SW12      29.89R
GORDON         FAIR      50  34  54 W9        29.89S
KIMBALL        CLOUDY    52  29  40 W17       29.97R
SIDNEY         SUNNY     55  29  36 SW5       29.98R
$$

NEZ057>060-069>072-079>082-201500-
SOUTHWEST NEBRASKA

CITY           SKY/WX    TMP DP  RH WIND       PRES   REMARKS
NORTH PLATTE   SUNNY     50  42  74 CALM      29.95R
IMPERIAL       SUNNY     50  36  58 W5        29.97R
LEXINGTON      SUNNY     51  44  75 W7        29.92R
MCCOOK         SUNNY     51  38  60 W7        29.95R
OGALLALA       MOSUNNY   46  39  76 W3        29.96S
$$

NEZ005>010-023>029-035>040-094-201500-
NORTH CENTRAL NEBRASKA

CITY           SKY/WX    TMP DP  RH WIND       PRES   REMARKS
VALENTINE      SUNNY     55  47  74 CALM      29.87S
AINSWORTH      CLOUDY    54  49  85 CALM      29.88S
BROKEN BOW     SUNNY     52  45  77 W5        29.91R
O`NEILL        SUNNY     55  50  83 W8        29.88R
ORD            SUNNY     55  47  74 NW6       29.87R
THEDFORD       CLOUDY    57  43  60 SW7       29.92R
$$

NEZ041-046>049-061>064-073>077-083>087-201500-
SOUTH CENTRAL NEBRASKA

CITY           SKY/WX    TMP DP  RH WIND       PRES   REMARKS
GRAND ISLAND   SUNNY     57  49  74 NW12      29.87R
AURORA         SUNNY     58  50  76 N10       29.86R
HASTINGS       SUNNY     58  47  66 N13       29.88R
HEBRON         SUNNY     64  53  65 N8        29.82R
HOLDREGE       SUNNY     55  45  69 NW8       29.90R
KEARNEY        SUNNY     56  47  71 N9        29.90R
YORK           SUNNY     59  50  72 N9        29.84R
$$

NEZ011>018-030>034-042>045-201500-
NORTHEAST NEBRASKA

CITY           SKY/WX    TMP DP  RH WIND       PRES   REMARKS
NORFOLK        SUNNY     58  51  78 NW9       29.83R
ALBION         SUNNY     55  50  83 NW12      29.86R
BLAIR          SUNNY     67  55  65 N13       29.78R
COLUMBUS       SUNNY     60  51  72 NW8       29.84R
FREMONT        SUNNY     63  56  78 NW12      29.81R
TEKAMAH        SUNNY     66  55  67 VRB5      29.78R
WAYNE          SUNNY     58  55  91 NW9       29.83R
$$

NEZ050>053-065>068-078-088>093-201500-
SOUTHEAST NEBRASKA

CITY           SKY/WX    TMP DP  RH WIND       PRES   REMARKS
LINCOLN        SUNNY     68  53  58 N14       29.79R
OMAHA EPPLEY   MOSUNNY   67  55  65 N15       29.76R
BEATRICE       SUNNY     67  54  61 N9        29.78R
FALLS CITY     SUNNY     77  70  79 S12       29.74R
NEBRASKA CITY  SUNNY     72  72 100 NW6       29.75R
PLATTSMOUTH    MOSUNNY   69  62  79 NW10      29.76R
$$

NEZ044-045-051>053-067-201500-
OMAHA AREA

CITY           SKY/WX    TMP DP  RH WIND       PRES   REMARKS
OMAHA EPPLEY   MOSUNNY   67  55  65 N15       29.76R
BLAIR          SUNNY     67  55  65 N13       29.78R
FREMONT        SUNNY     63  56  78 NW12      29.81R
MILLARD        SUNNY     69  56  63 NW7       29.77R
OFFUTT AFB     SUNNY     69  57  65 N13       29.75R
PLATTSMOUTH    MOSUNNY   69  62  79 NW10      29.76R
WAHOO          FAIR      64  55  74 NW12      29.80R
$$




USA.gov is the U.S. government's official web portal to all federal, state and local government web resources and services.